Dewpoint
57 56 55 54 54 53 53 53 53 53 54 54 55 55 55 55 53 24 19 30 35 57 58 29 30 39 42 49 50 48 43 40 43 44 46 47 45 41 36 35 32 34 39 38 36
57 56 55 54 54 53 53 53 52 53 54 54 54 55 55 55 38 18 41 53 56 60 31 26 29 40 46 46 48 46 43 43 46 45 46 45 44 41 38 35 32 31 31 31 36
57 56 55 54 55 53 53 52 52 52 53 53 54 54 55 53 19 16 51 58 58 58 30 30 30 45 45 46 47 46 44 46 46 47 47 45 43 41 39 40 33 31 29 29 35
57 56 56 55 55 54 53 52 52 52 52 53 54 54 54 35 14 18 55 55 58 49 30 43 45 45 46 45 47 45 46 46 47 47 46 44 42 36 38 40 37 30 30 30 35
56 56 56 55 55 54 53 52 51 51 51 53 54 55 37 21 20 21 51 42 30 27 43 44 45 46 45 46 46 45 45 42 39 36 35 34 33 35 33 30 30 29 30 30 31
56 56 55 55 55 54 53 51 50 50 51 52 55 55 25 20 22 20 24 30 35 44 44 46 46 45 40 38 43 40 37 31 30 30 30 28 28 28 30 29 28 29 30 29 32
57 56 55 55 55 54 53 50 50 49 51 53 55 45 23 21 20 23 25 33 36 42 39 42 42 40 37 35 35 35 30 29 29 28 27 28 26 27 29 28 27 28 28 28 31
58 56 55 55 54 53 52 50 48 49 52 54 55 36 22 22 26 21 24 31 34 39 40 40 40 38 35 34 32 31 30 28 29 28 27 26 26 26 28 28 28 27 26 28 30
58 56 55 54 54 53 51 48 47 52 54 54 30 24 17 29 20 20 24 28 31 33 37 38 38 36 35 32 31 30 30 28 28 29 27 26 24 26 28 28 26 25 26 26 29
57 57 55 55 54 52 50 47 49 48 37 30 24 17 17 16 19 21 21 29 30 33 31 35 36 34 33 30 27 28 25 27 27 28 26 25 24 26 27 26 25 24 25 26 28
57 57 56 55 54 52 46 42 35 26 32 25 21 24 19 18 22 17 21 30 30 30 30 32 34 34 33 29 27 26 25 24 25 25 23 25 24 24 26 23 23 23 25 26 27
55 57 56 55 53 50 46 37 38 38 29 30 21 21 23 22 21 16 24 26 29 28 30 28 30 29 35 33 32 23 24 21 19 20 20 18 21 23 24 24 22 22 24 26 27
54 56 55 53 51 45 45 42 48 44 32 28 18 18 17 22 22 14 21 25 25 26 28 26 23 19 20 18 19 20 23 17 16 14 17 19 16 21 23 21 21 22 24 26 26
53 54 55 49 40 37 39 45 45 47 29 24 17 16 16 24 20 16 19 24 26 22 19 18 19 18 16 18 17 13 15 13 11 10 4 15 10 15 22 21 20 20 22 25 26
52 53 54 45 39 25 44 40 48 39 12 22 14 14 14 18 17 14 18 25 22 23 25 22 17 16 13 16 17 12 15 13 12 8 9 12 11 12 21 21 20 20 21 23 26
52 53 54 43 36 25 43 46 35 22 8 20 13 14 14 17 16 16 21 24 26 21 18 19 19 18 18 15 16 18 17 22 21 17 12 12 11 9 17 20 21 21 20 22 26
51 52 53 42 30 39 47 34 22 14 19 13 10 15 17 16 16 15 21 20 21 20 18 18 17 15 21 14 14 21 19 19 9 17 14 15 13 12 16 19 21 21 21 21 26
51 52 53 52 42 44 42 29 5 15 19 17 12 16 14 16 18 18 17 18 22 24 19 16 13 16 19 21 13 19 17 21 5 19 21 23 16 20 20 21 21 22 22 22 26
52 52 52 52 48 45 35 21 18 17 22 12 13 12 14 20 18 19 16 17 17 22 19 17 15 17 18 19 19 21 19 30 26 25 23 21 19 22 19 19 22 21 22 24 26
50 50 51 53 46 46 33 25 24 28 17 16 12 16 13 16 17 16 19 22 19 24 31 25 16 18 18 19 26 26 27 24 27 13 15 16 18 17 19 20 19 21 23 27 27
48 46 52 53 55 44 29 24 29 33 16 17 17 19 19 17 18 17 18 23 26 27 27 25 22 17 19 17 19 25 27 32 28 23 14 15 12 21 22 24 20 20 25 28 28
47 42 51 53 44 41 30 29 35 20 20 22 22 22 21 19 19 20 21 25 28 23 23 32 25 18 15 22 22 26 27 30 24 19 26 25 22 23 23 26 22 21 27 31 28
44 46 50 50 35 37 35 32 34 19 18 21 20 22 25 21 17 23 26 27 28 25 27 27 23 22 14 19 25 19 30 32 28 28 24 23 16 19 21 22 29 28 33 32 34
43 35 43 45 43 39 32 30 28 30 22 23 21 22 21 22 27 23 25 29 32 27 39 33 25 21 20 14 22 17 23 29 27 24 23 21 18 20 22 21 26 33 34 34 34
43 37 40 34 36 37 32 32 25 28 23 24 24 21 20 20 25 25 27 26 28 34 28 24 20 26 25 26 22 19 15 27 26 25 20 14 21 20 22 20 26 34 34 33 33
38 41 45 38 38 37 36 31 24 26 23 22 22 23 24 22 23 25 25 25 23 28 25 28 21 26 22 27 29 26 25 22 27 25 25 24 23 23 25 26 28 33 33 32 31
45 47 46 41 37 37 38 37 32 26 31 25 25 26 27 27 28 29 29 29 28 27 26 25 26 25 18 23 19 18 21 23 25 27 23 20 19 21 21 21 26 33 33 32 29
Lifted_Index
11 12 13 14 15 16 16 16 16 16 16 15 14 13 12 11 9 7 5 6 6 6 5 4 3 1 1 0 0 1 1 1 1 1 1 1 2 2 2 1 2 2 2 3 3
10 11 13 14 15 15 16 16 16 16 15 15 14 13 12 11 9 7 6 7 7 6 4 3 2 1 0 -0 0 0 1 1 1 1 1 1 2 2 2 2 2 2 2 3 4
8 10 11 13 14 15 16 16 16 15 15 14 13 12 12 10 8 7 7 7 6 5 3 2 1 0 -0 -0 0 1 1 1 1 1 2 2 2 2 2 2 2 2 2 3 4
7 8 10 11 13 14 15 15 15 15 15 14 13 12 11 10 8 7 7 6 5 3 1 1 1 1 0 0 0 1 1 2 2 2 2 2 2 2 2 2 2 2 2 3 4
5 6 8 10 12 13 14 14 14 14 14 13 12 11 11 9 8 7 6 5 3 1 1 1 1 1 0 0 1 1 2 2 2 2 2 2 2 2 2 2 2 2 3 5 6
5 5 6 8 10 12 13 14 14 14 13 12 11 11 10 9 8 7 5 3 1 1 1 1 1 1 1 1 1 2 2 2 2 2 2 2 2 2 2 2 2 3 4 6 8
4 5 5 6 8 11 13 13 13 13 12 12 11 10 9 8 7 6 4 2 1 1 1 1 1 1 2 2 2 3 3 3 3 3 3 4 3 2 2 2 2 3 4 7 10
4 4 5 5 7 10 12 13 12 12 12 11 10 9 8 7 7 5 3 2 1 1 2 2 2 2 2 2 3 3 3 3 3 4 5 5 5 4 3 3 3 4 6 9 11
3 4 4 5 6 9 11 11 11 11 11 11 10 9 8 7 6 5 3 2 2 2 2 3 2 2 2 2 3 4 4 4 4 5 6 6 6 5 5 5 6 7 9 11 12
3 3 4 5 6 8 10 10 9 10 10 10 9 8 8 7 6 5 3 3 2 3 3 3 3 3 3 3 4 5 5 5 5 6 6 6 6 7 8 8 8 9 10 11 12
2 3 3 4 6 8 9 9 8 9 9 9 8 8 8 8 6 5 4 3 3 4 4 4 4 3 4 5 5 5 5 5 6 6 6 6 6 7 8 9 9 9 10 11 11
2 2 3 4 6 9 9 9 8 8 8 8 8 8 9 8 7 5 4 4 4 4 4 4 4 4 5 5 6 5 5 6 6 7 6 6 6 7 8 8 8 9 10 11 11
3 2 2 3 6 9 10 9 8 8 7 8 8 8 9 8 7 6 5 4 4 4 4 4 4 5 5 5 5 5 5 6 6 6 6 5 5 5 7 7 8 9 10 10 10
3 2 2 3 6 9 10 9 8 7 6 6 7 8 9 8 7 6 6 5 4 4 4 4 4 5 5 5 5 5 5 6 6 6 5 5 4 4 5 6 6 7 8 9 10
3 3 2 3 6 9 9 8 8 6 5 5 7 8 8 8 7 7 7 6 5 4 4 4 4 4 5 5 6 6 6 6 6 5 4 4 3 3 4 4 5 6 7 8 9
4 3 2 2 5 8 8 8 7 6 5 5 6 7 7 7 7 7 7 6 5 5 4 4 4 4 4 5 5 6 6 5 5 4 3 3 3 3 3 4 5 5 6 7 8
5 3 2 2 4 7 8 8 7 6 6 6 6 6 6 6 6 6 6 6 6 5 4 4 4 4 5 5 5 5 5 4 3 2 2 3 3 3 4 5 5 5 6 7 7
5 3 2 2 4 7 8 7 6 6 6 6 5 5 4 5 6 5 5 5 6 5 4 4 4 5 5 5 5 5 5 3 2 2 2 3 3 4 5 5 5 6 6 6 7
5 3 2 1 3 6 7 6 6 6 6 6 5 4 3 4 4 4 4 5 6 6 5 4 4 5 6 6 6 5 5 4 3 2 2 3 3 4 5 5 5 6 6 6 6
4 3 2 2 3 5 5 4 5 7 7 6 5 4 3 3 3 3 4 5 6 6 6 5 5 5 6 6 6 5 5 4 4 3 2 2 3 4 5 5 6 6 6 6 6
4 3 2 2 3 3 3 4 6 7 7 7 6 5 4 3 3 3 3 5 6 7 7 6 5 5 6 6 6 6 5 5 4 3 2 2 3 5 6 6 6 6 6 7 7
5 3 2 2 2 2 2 4 6 7 7 7 7 6 5 4 3 2 3 4 6 7 7 7 6 5 5 6 7 6 6 5 5 4 3 3 4 6 7 7 7 7 7 7 7
4 3 2 2 1 2 2 3 5 7 7 7 7 7 6 5 4 3 3 4 6 6 6 7 6 5 5 6 7 6 6 6 5 5 4 4 4 6 7 7 8 8 7 7 7
4 3 3 2 2 2 2 2 4 6 7 7 7 7 7 6 4 3 3 5 6 6 6 6 5 5 5 6 6 6 6 6 6 5 4 4 4 6 7 8 8 8 8 7 7
3 3 3 3 3 3 2 2 3 5 6 7 7 7 7 6 5 4 4 4 5 5 5 5 5 5 6 6 6 6 6 6 6 5 5 5 5 6 7 8 8 8 8 7 7
4 3 4 4 4 3 2 2 3 5 6 6 6 6 7 6 6 5 4 4 4 4 4 4 5 5 5 5 5 5 5 5 5 5 5 5 5 6 8 8 8 8 7 7 6
4 4 4 4 4 3 3 2 3 5 6 6 6 6 7 7 7 6 5 5 4 4 4 4 5 5 5 5 4 4 4 4 5 5 5 5 5 6 7 8 8 8 7 6 6